Presure
172 179 150 178 182 189 126 129 146 128 125 133 133 124 125 143 134 156 148 151 170 133 129 173 166 177 164 157 153 183 183 137 150 152 163 154 168 173 180 177 186 162 152
176 139 125 151 163 176 163 147 114 112 139 131 130 107 153 133 152 144 165 159 176 162 169 173 155 152 188 186 196 140 140 186 133 179 137 165 166 172 187 164 169 189 192
188 138 149 132 124 126 119 116 132 139 139 145 131 117 126 119 160 166 152 159 135 168 169 174 151 157 186 165 171 161 137 146 154 176 150 139 155 135 148 184 162 205 211
139 177 150 134 140 132 127 128 112 115 116 140 134 146 138 155 150 177 169 168 168 169 151 181 127 138 184 130 161 165 134 187 144 133 186 141 189 217 203 187 207 211 103
137 121 145 123 125 128 131 133 123 125 138 125 126 124 138 158 164 157 173 153 160 163 116 160 171 170 178 167 192 153 132 173 119 180 149 174 179 195 197 207 209 222 230
136 130 112 138 131 112 129 120 121 121 122 124 121 122 152 130 152 157 167 169 166 143 187 171 182 166 177 122 138 165 162 176 154 188 153 177 198 213 215 214 217 233 82
150 150 148 138 139 125 124 125 140 128 146 131 121 128 133 149 166 140 167 167 161 171 181 171 141 167 178 131 135 169 180 163 156 183 183 201 204 210 219 217 223 295 301
136 131 153 121 119 125 129 121 129 120 120 118 136 135 131 157 145 143 158 156 175 180 155 177 180 173 141 138 150 185 179 146 178 147 196 211 184 214 224 218 237 307 320
147 142 142 121 129 128 116 128 131 107 126 134 134 127 140 138 160 161 155 182 159 173 105 131 171 173 151 143 136 177 196 189 173 201 194 131 206 215 217 223 243 317 391
159 142 157 143 129 116 115 124 118 133 126 122 134 121 137 152 138 149 181 171 151 172 148 126 184 127 149 160 168 179 186 167 180 195 177 205 211 213 215 234 286 321 488
151 87 142 128 137 130 132 137 125 117 132 135 129 132 140 141 182 174 137 180 159 186 122 180 163 169 160 151 181 182 179 188 196 194 187 213 215 203 215 238 314 329 472
106 109 141 140 138 141 120 136 134 119 130 128 134 127 189 172 174 173 181 181 174 177 116 168 161 157 160 172 166 172 168 179 195 190 204 207 212 223 219 241 322 461 461
183 103 105 141 108 143 132 135 149 145 132 139 138 180 165 158 171 180 183 170 154 175 164 122 164 153 166 175 173 181 187 181 196 198 204 176 213 222 226 244 321 455 424
114 142 141 140 139 143 138 122 135 136 158 156 147 144 182 174 174 169 170 164 130 148 171 150 168 148 176 162 184 172 182 195 192 203 210 211 216 222 240 274 327 442 455
140 130 133 135 136 141 139 178 141 139 153 190 177 170 167 168 162 167 184 176 177 166 165 151 150 136 182 181 189 187 188 194 196 206 205 213 219 227 247 315 333 423 412
150 155 144 180 88 140 143 152 142 141 170 137 169 166 171 172 163 163 135 159 109 153 188 161 171 175 175 184 176 181 193 196 201 201 204 217 222 233 240 328 427 417 408
169 135 177 176 144 139 143 183 149 182 174 174 171 169 163 158 156 171 139 164 172 176 176 173 178 180 181 181 190 191 193 198 210 213 214 221 226 235 294 326 442 414 402
151 151 168 173 165 173 178 176 177 166 160 160 165 169 154 173 88 157 168 151 166 171 176 175 173 181 183 191 188 194 202 208 201 209 218 213 230 299 313 324 423 423 399
162 179 179 110 122 162 169 174 175 179 177 175 168 168 135 171 118 174 141 173 178 175 165 177 175 179 187 187 194 199 196 200 208 215 216 219 281 304 318 387 415 417 402
142 163 175 175 168 175 169 170 171 166 142 171 171 165 131 163 153 125 102 174 168 172 175 172 170 184 196 193 199 196 204 209 196 216 216 239 303 305 319 433 406 394 391
120 145 162 163 165 175 175 176 177 178 178 156 133 130 153 166 159 149 166 171 174 171 173 185 186 190 190 198 199 204 207 200 215 213 227 295 297 309 335 419 398 389 378
139 160 171 171 160 146 180 178 173 173 151 171 118 165 162 131 166 168 175 173 172 181 187 192 185 192 199 201 204 206 203 217 215 225 284 305 306 313 445 405 387 369 380
200 197 184 178 175 170 163 164 149 163 163 159 160 165 169 167 171 172 173 180 176 192 184 184 196 202 199 207 204 203 216 216 238 291 296 305 308 322 434 401 375 370 379
195 194 138 196 184 181 181 180 177 174 168 163 172 172 179 142 184 184 190 191 183 183 193 193 199 202 195 209 205 215 218 232 289 285 295 305 307 472 412 385 382 381 368
199 187 198 191 190 188 188 191 190 189 166 185 161 183 184 184 188 185 185 185 192 192 196 199 200 205 209 205 216 222 248 292 280 283 302 300 327 454 407 381 378 383 380
210 206 180 176 176 171 188 189 125 181 191 190 189 187 186 189 193 191 192 164 197 194 199 207 206 207 215 218 235 279 270 287 277 296 305 305 462 445 391 368 371 382 379
Wind_Speed
36 50 37 50 48 46 24 21 27 19 20 27 30 25 32 41 38 47 46 48 52 47 45 56 52 58 56 58 49 68 68 52 57 62 68 70 78 83 88 96 101 103 88
47 38 34 42 45 43 43 37 18 17 31 29 32 17 45 41 49 46 53 51 55 53 56 60 54 51 66 64 64 59 63 73 55 70 64 74 82 86 88 103 106 108 116
55 38 45 31 26 23 18 17 26 31 33 38 36 28 38 36 53 54 53 55 46 58 58 62 53 58 67 64 65 64 66 63 67 76 68 75 81 82 87 97 96 116 122
39 45 46 32 30 28 23 25 23 20 22 40 39 43 46 54 52 56 57 58 59 59 52 62 59 56 67 61 62 66 65 75 68 77 83 83 86 91 90 97 115 124 4
38 38 40 29 26 26 29 30 24 27 39 34 37 39 48 55 60 58 60 56 60 62 53 55 68 67 71 68 73 59 69 78 63 85 85 90 95 98 97 104 118 131 141
40 37 38 38 34 30 30 23 24 27 32 37 38 40 55 48 57 58 63 64 65 61 67 71 70 65 76 62 66 73 75 83 78 88 91 94 100 112 116 117 126 137 34
55 49 46 40 41 29 37 28 44 35 50 44 40 46 49 59 64 54 65 67 65 70 71 72 50 73 80 58 66 79 86 73 84 93 100 108 113 118 123 127 133 126 133
46 39 55 34 29 31 34 24 34 30 35 38 51 51 51 63 58 59 67 69 74 73 62 77 74 78 62 68 63 90 89 78 93 90 108 119 104 124 132 133 146 130 133
54 51 48 32 38 36 24 33 40 25 42 51 52 51 61 60 65 69 68 73 71 78 46 65 79 79 57 66 74 92 99 99 93 112 109 72 125 128 132 138 149 135 104
53 53 68 54 44 31 47 37 32 48 44 45 57 49 61 66 64 65 72 75 69 81 68 67 83 74 61 77 90 96 99 90 98 112 98 125 130 130 131 145 144 131 56
63 42 57 41 53 42 42 50 36 37 53 58 57 60 65 66 71 74 57 79 66 79 54 82 71 80 71 76 98 100 101 103 116 114 102 133 133 119 131 149 132 127 53
43 50 58 59 56 63 29 54 51 39 53 55 62 57 67 74 75 77 79 79 84 84 65 80 77 68 76 94 89 98 94 99 117 104 127 131 136 144 140 145 124 63 48
68 39 47 64 38 62 48 53 72 62 59 69 67 72 74 78 78 79 79 83 78 87 80 62 82 68 89 101 98 107 112 105 121 123 128 97 141 145 148 143 121 59 58
47 70 69 63 63 68 60 40 59 63 73 68 79 66 76 80 81 82 85 84 63 73 87 61 90 69 102 88 108 101 109 124 113 129 135 139 147 147 147 138 117 56 41
58 49 58 66 70 75 73 74 58 73 83 73 78 84 86 85 78 85 91 92 90 85 86 66 69 76 106 107 115 116 119 122 123 135 130 142 149 150 147 120 111 56 49
67 76 66 84 28 69 74 84 75 78 81 72 88 90 90 89 87 84 58 83 58 73 100 87 100 101 103 111 104 110 125 124 130 122 128 148 147 153 142 110 63 53 44
89 67 92 91 68 66 71 83 76 82 87 89 90 91 89 81 74 93 62 88 98 102 99 102 106 107 110 110 121 121 123 125 136 140 144 152 153 153 124 106 49 49 41
88 92 98 95 91 89 88 89 87 89 91 93 94 95 77 99 39 76 95 79 96 103 107 106 105 112 114 121 117 126 133 137 122 134 147 140 155 120 110 105 49 44 39
101 101 97 48 66 96 95 94 95 93 94 98 97 95 62 98 64 105 65 106 109 107 97 110 109 111 118 118 125 130 125 123 136 146 146 148 129 111 104 73 43 40 36
71 102 100 99 85 99 99 95 98 100 69 101 102 99 58 98 83 66 49 111 104 110 112 108 107 117 126 124 129 123 134 140 114 149 145 153 111 107 101 40 39 40 34
50 75 104 103 103 101 102 102 103 105 105 83 60 65 90 107 98 89 105 112 115 112 112 122 120 122 123 129 128 134 139 122 148 141 149 112 107 102 96 43 38 37 30
69 95 106 105 97 83 105 106 108 109 84 109 60 108 107 57 109 106 118 118 116 122 124 125 119 124 130 131 134 137 126 148 146 149 125 101 101 100 33 42 38 35 28
114 112 111 111 110 108 103 106 92 108 109 106 105 111 115 113 115 119 121 122 119 126 121 119 128 134 129 138 131 129 145 146 149 117 107 98 95 102 30 36 36 34 24
113 111 66 113 110 111 112 114 115 117 116 102 120 119 121 70 121 123 125 125 120 120 129 127 132 132 119 140 135 144 149 152 109 106 104 98 96 29 33 34 33 24 21
121 107 116 110 110 112 114 116 118 121 95 120 97 122 122 124 126 123 123 122 129 128 132 135 131 138 138 135 146 150 145 97 102 100 95 91 98 27 30 30 27 19 17
130 126 99 98 99 95 115 116 48 111 123 123 124 123 125 127 130 130 129 92 133 128 133 140 139 138 144 149 149 111 116 91 98 93 93 91 48 25 29 31 25 19 17
Wind_Direction
232 240 231 247 247 244 243 250 256 276 287 288 293 294 309 291 300 286 293 295 290 303 297 297 296 301 305 303 310 304 306 299 293 308 309 306 308 306 302 299 298 295 292
241 234 228 239 245 243 242 251 248 264 277 286 298 308 279 301 286 294 286 292 289 294 296 297 300 307 301 301 300 306 305 305 301 305 301 306 307 306 305 300 299 300 296
237 228 236 236 235 242 243 248 266 277 279 275 293 308 304 292 282 282 292 291 299 294 298 299 298 297 300 312 308 303 306 306 309 308 305 299 301 300 302 303 304 308 306
227 241 235 237 247 255 259 270 250 276 297 281 291 282 294 284 289 280 286 289 293 296 306 297 302 302 300 310 311 309 305 304 304 303 311 297 305 314 312 304 314 313 221
233 235 240 240 249 258 261 266 282 288 281 295 295 302 295 283 283 290 287 303 301 302 311 304 303 301 301 308 302 305 306 315 300 313 297 307 306 312 316 314 317 320 317
236 240 236 247 250 243 267 274 286 293 296 294 300 301 285 299 291 293 293 295 299 301 292 300 299 305 303 312 295 312 308 310 305 315 301 312 319 322 324 322 323 322 265
240 242 246 252 256 262 261 272 271 285 277 290 300 297 297 293 288 302 294 294 300 298 294 300 297 304 304 307 304 313 314 315 304 317 314 322 325 324 327 325 325 329 325
243 245 245 250 255 265 271 282 282 291 293 297 292 297 296 288 298 303 300 301 294 292 303 299 298 305 293 305 304 313 315 311 313 304 324 325 320 328 328 327 326 330 326
243 252 254 257 263 271 273 283 284 271 292 290 294 296 295 295 292 295 298 289 303 295 307 307 304 307 302 296 300 314 315 317 315 323 326 305 328 330 330 329 326 330 327
238 252 251 259 256 267 267 278 285 286 291 296 294 289 294 291 300 297 287 293 293 296 299 305 304 299 301 307 308 315 316 312 321 326 323 327 330 330 330 330 332 329 323
245 261 255 266 267 271 278 279 287 283 290 290 291 292 295 297 282 288 292 288 291 294 306 301 311 309 315 303 313 314 318 319 323 327 323 327 330 327 329 330 332 330 322
248 254 257 262 270 268 288 281 284 284 287 289 291 295 275 282 285 288 286 289 293 295 304 309 304 308 316 314 319 318 317 322 323 326 327 329 330 331 329 329 330 323 320
236 248 261 265 256 272 278 281 278 280 289 289 293 274 281 289 285 286 287 294 293 296 310 302 306 308 314 312 313 316 317 323 323 327 328 324 330 331 329 329 330 324 322
247 248 259 270 274 273 280 281 288 289 280 280 288 285 275 281 284 289 290 294 287 294 303 304 308 308 309 315 313 318 320 320 324 325 328 330 328 330 329 331 331 322 316
253 256 263 269 273 275 280 262 279 288 281 267 271 278 283 285 285 288 288 292 295 303 299 307 307 302 308 312 314 317 320 321 324 324 328 328 328 328 329 330 332 322 319
260 259 251 248 261 271 272 272 283 284 269 283 276 281 280 283 288 294 276 297 289 297 300 307 305 308 311 312 318 319 318 321 323 325 327 326 328 327 326 330 326 322 319
253 264 252 253 272 277 273 260 272 267 270 272 276 279 286 290 290 292 286 297 300 300 303 302 305 308 311 314 314 317 318 320 320 324 325 325 326 324 329 330 322 321 319
257 258 261 261 267 265 264 266 268 273 278 281 281 282 282 284 294 298 297 296 301 299 300 303 308 308 311 311 315 315 316 318 322 324 324 324 324 327 327 331 321 318 319
258 252 256 273 273 271 269 266 267 269 272 274 281 283 275 284 289 289 293 295 295 297 306 304 307 309 310 312 313 314 318 320 321 322 322 323 324 325 325 327 319 316 318
260 259 256 259 261 263 270 269 271 275 272 276 278 283 279 290 295 287 291 293 298 299 301 305 308 308 306 311 311 315 315 317 321 321 321 321 325 324 327 316 317 316 318
252 257 259 262 264 260 262 264 266 267 269 271 279 286 288 287 293 289 292 294 295 298 302 299 303 305 309 309 311 312 315 318 318 319 319 323 322 325 328 315 317 315 316
260 254 253 256 260 262 259 261 265 267 270 273 282 283 286 289 290 290 289 291 295 294 296 299 303 305 306 308 309 312 314 314 316 317 321 322 323 327 306 313 315 314 310
244 245 249 252 255 259 263 269 271 273 276 278 281 281 280 286 286 287 288 289 293 293 297 301 303 303 305 306 309 311 312 313 315 319 319 322 324 328 302 306 311 305 293
247 248 259 250 254 257 259 261 264 266 272 274 274 278 277 290 281 283 286 288 292 295 297 299 300 302 305 305 308 310 311 313 318 318 319 322 326 306 306 308 304 297 281
249 252 252 253 254 256 258 261 263 264 269 269 278 275 277 279 281 284 287 290 291 293 296 296 299 300 303 306 306 308 311 315 314 315 320 322 328 303 302 306 302 298 286
248 250 255 257 260 259 260 262 278 267 268 270 273 275 278 281 282 284 286 288 290 292 294 296 297 300 301 303 306 310 310 312 312 318 322 326 320 298 303 306 303 305 285